GFSMW_925_thetae_000.txt.gz
Theta_e
353 352 351 352 355 355 357 356 356 355 353 353 351 348 348 346 346 344 342 344 343 343 344 346 346 344 346 344 345 343 343 346 346 347 346 345 346 350 349 346 346 348 348
350 355 354 354 355 356 356 356 355 354 352 349 347 346 346 346 343 345 341 339 343 342 344 343 347 345 345 345 344 344 343 344 345 346 344 347 347 350 350 349 347 345 346
352 355 357 357 357 357 356 355 354 352 351 349 348 347 344 343 343 342 340 341 339 342 343 343 343 346 346 344 344 345 344 344 345 344 344 347 352 348 346 346 347 347 347
348 357 359 360 358 358 357 355 352 353 352 349 347 346 346 343 342 340 339 339 340 343 342 343 343 344 347 344 347 344 343 342 345 343 343 346 346 348 350 344 346 345 345
348 358 358 358 356 357 357 355 353 354 351 351 345 345 342 339 339 339 340 342 342 342 342 342 342 345 347 346 345 345 344 341 340 342 342 345 346 343 345 350 347 346 344
361 361 359 358 343 348 354 356 354 353 350 347 345 344 344 343 343 343 343 343 342 342 342 342 343 344 345 345 344 344 345 340 342 343 342 344 343 343 344 345 345 345 346
350 344 346 347 344 349 349 346 353 351 348 346 344 343 342 340 341 342 341 343 343 341 341 341 343 344 345 345 344 343 340 340 341 340 343 343 342 342 341 342 344 344 344
349 346 349 352 352 349 347 345 351 349 347 346 343 343 341 339 341 341 342 339 339 340 339 342 342 343 343 343 344 344 341 341 341 342 341 343 341 340 339 340 341 343 343
354 348 345 337 346 346 346 348 347 347 346 343 344 343 343 341 341 341 342 340 339 340 342 342 342 342 343 345 342 340 342 342 341 341 340 339 342 342 343 341 341 341 342
351 350 351 347 345 346 347 346 346 346 345 344 345 343 340 340 340 339 340 340 340 340 343 343 342 342 342 343 342 343 342 340 339 336 335 331 328 340 342 341 340 340 341
352 351 345 345 345 346 346 345 345 346 346 342 344 343 336 341 339 340 339 340 340 341 340 341 343 343 341 341 342 343 340 337 334 334 337 336 331 340 341 338 340 338 337
351 348 347 347 345 345 346 343 343 343 345 346 345 342 340 339 343 339 340 341 341 340 339 340 341 340 341 341 341 340 337 336 337 337 338 338 339 340 340 334 335 338 339
355 351 351 352 347 348 348 344 337 343 344 347 343 343 342 342 342 341 338 339 340 339 339 340 340 340 337 337 338 337 335 334 334 333 334 334 334 335 335 337 337 339 339
357 354 354 354 349 349 350 347 345 342 343 345 345 343 343 342 342 342 342 340 339 339 337 337 339 339 338 336 336 337 335 333 332 332 331 330 334 333 331 331 332 333 333
356 354 353 353 350 349 347 348 348 343 344 343 345 342 341 342 340 343 342 341 340 338 334 334 335 335 334 334 334 334 333 332 331 330 330 330 333 333 333 332 332 332 333
355 352 354 351 350 349 347 347 347 346 344 342 345 341 340 340 339 341 339 339 339 337 337 336 335 335 334 334 332 332 331 329 329 329 329 328 329 327 325 326 327 328 332
351 348 347 346 345 344 345 346 348 348 347 343 342 340 339 340 338 338 338 339 338 337 336 333 332 331 331 331 331 330 330 329 328 327 326 324 320 316 319 320 318 320 324
346 344 343 342 341 339 340 340 341 342 347 345 342 339 337 337 340 337 338 337 334 332 329 326 323 324 328 331 332 332 328 324 322 323 320 321 318 321 321 318 313 314 315
342 339 337 336 333 331 331 335 339 340 342 346 343 340 339 339 338 337 336 332 329 324 322 320 318 317 319 326 327 325 322 319 315 314 312 314 315 317 317 315 311 309 309
336 333 330 328 327 325 326 328 333 336 338 339 340 338 336 331 328 330 326 324 322 320 317 314 313 314 315 319 322 320 315 311 307 306 307 310 313 316 317 317 316 314 314
329 328 326 324 322 319 318 317 317 317 319 323 325 328 327 324 322 322 321 319 316 313 310 309 308 309 310 313 316 318 316 312 308 307 307 307 308 309 310 314 312 310 309
327 324 323 319 317 315 315 313 313 314 316 316 317 316 319 318 318 319 315 313 311 309 307 308 307 308 311 311 310 310 309 309 308 307 308 309 310 309 308 308 308 308 309
324 322 320 317 315 314 313 312 311 312 311 311 311 310 310 310 311 310 309 309 308 307 306 305 305 305 306 306 308 309 310 310 308 307 307 307 306 306 307 308 307 307 307
322 320 319 317 316 313 312 312 311 311 311 311 311 311 311 311 311 310 309 308 307 306 305 304 304 303 304 304 305 305 304 304 304 304 304 304 304 304 303 304 303 303 302
320 318 318 319 317 315 315 314 313 312 312 311 308 307 306 304 304 303 304 303 303 302 302 302 301 300 300 301 304 306 306 306 305 305 304 305 304 304 304 303 303 301 301
319 319 319 318 318 317 316 316 315 314 312 309 306 303 302 302 301 299 299 300 299 298 298 298 297 296 296 297 298 300 302 303 303 304 304 304 303 302 302 302 302 301 301

GFSMW_925_thetae_003.txt.gz
Theta_e
351 352 354 355 357 355 356 355 356 356 356 355 351 350 348 347 345 344 343 344 343 343 342 342 342 345 344 342 340 344 343 339 346 346 346 346 346 342 345 346 348 347 347
352 351 352 355 356 356 355 354 355 355 354 352 351 348 345 345 344 343 343 343 340 341 342 343 343 344 344 344 343 343 343 344 345 343 343 342 344 345 347 348 347 347 347
354 351 348 341 349 357 356 355 354 354 353 351 349 347 346 344 343 342 341 340 339 339 340 341 341 343 345 344 345 343 343 342 344 343 341 341 342 345 346 348 347 346 346
356 350 337 347 350 356 355 354 354 352 351 350 347 346 345 345 339 339 340 340 337 337 340 340 341 343 345 345 344 343 342 343 342 344 343 342 344 343 343 346 346 347 347
354 356 345 351 358 357 355 346 353 354 351 350 347 345 343 342 342 341 340 340 338 338 339 341 341 342 343 344 345 343 342 342 341 341 340 341 343 343 342 342 344 347 345
359 360 351 349 342 356 347 342 353 351 349 347 345 342 343 340 340 339 340 340 340 339 340 342 342 341 342 342 345 344 343 342 340 338 339 340 342 342 343 339 340 342 344
361 351 347 345 342 349 356 354 351 349 347 345 344 342 341 338 339 340 341 341 341 341 340 341 341 342 342 342 344 344 343 343 339 339 340 340 341 341 342 343 341 342 343
346 343 346 345 352 349 352 351 349 347 346 346 343 342 340 339 340 340 340 339 338 339 339 340 340 341 342 342 342 343 343 342 339 341 340 341 340 342 343 341 340 338 340
345 348 346 350 350 347 349 348 347 347 343 343 344 342 339 339 340 340 339 338 337 338 340 341 341 342 341 340 340 341 342 339 339 339 339 342 341 341 342 341 341 340 338
349 346 342 343 346 345 345 346 347 346 344 344 345 341 339 338 338 339 339 339 339 339 341 341 341 341 341 340 339 340 341 340 340 341 340 341 342 338 339 339 340 341 339
348 348 341 343 345 344 345 345 345 345 344 343 345 340 340 341 338 340 338 339 338 338 340 341 341 340 340 340 340 340 340 340 339 338 335 334 331 335 339 338 338 338 338
349 347 342 344 345 345 344 344 343 343 344 345 345 342 336 340 339 339 340 340 340 339 338 340 341 340 340 340 341 340 339 337 336 339 339 338 335 338 337 338 338 338 338
345 344 344 345 346 347 345 340 339 342 344 347 343 343 342 341 341 339 338 338 338 339 339 339 339 338 338 339 338 337 336 336 335 335 335 334 336 335 334 332 334 334 336
349 348 349 347 349 350 349 345 339 343 345 346 343 343 341 341 342 341 340 338 339 337 340 339 336 335 336 335 334 333 333 332 331 331 331 333 333 331 331 329 328 330 330
354 352 349 350 350 350 351 347 345 343 343 345 345 342 340 341 342 341 340 337 336 334 335 336 335 334 334 334 334 334 333 333 332 331 330 330 333 332 331 330 329 327 331
354 352 350 350 347 347 347 348 348 344 344 342 345 341 341 339 341 339 339 339 338 335 335 334 334 333 333 333 332 331 330 329 330 329 329 329 328 327 328 326 327 327 328
347 346 343 341 338 338 338 339 340 343 346 342 344 341 339 339 339 339 338 337 335 335 332 330 330 330 332 331 330 330 328 327 326 325 323 322 320 320 320 321 323 325 328
343 338 336 333 330 330 331 333 336 339 342 345 342 340 340 338 338 337 334 331 330 328 326 323 324 327 330 332 331 325 323 323 322 322 318 317 318 319 314 314 312 311 313
334 331 329 327 325 325 326 330 336 339 339 343 343 340 340 337 336 333 329 326 324 322 320 318 319 324 326 328 329 324 319 317 314 313 315 317 317 315 312 310 312 311 311
329 328 326 323 321 320 321 322 320 323 324 332 336 336 336 335 332 327 324 321 320 317 316 314 313 316 320 320 321 321 315 310 310 312 313 315 317 315 315 314 313 313 312
327 324 321 319 317 316 317 314 314 314 316 321 325 326 327 326 324 321 319 319 317 315 312 311 310 311 313 316 315 312 309 307 307 307 307 309 311 313 312 310 310 309 309
325 322 319 317 315 314 315 312 311 313 315 316 315 317 319 319 318 319 315 315 314 310 309 309 309 310 311 311 311 310 309 308 309 309 309 310 311 310 309 309 309 310 311
323 320 318 316 314 313 312 311 311 312 312 312 311 311 312 312 311 311 311 310 309 309 307 307 307 307 308 310 311 310 311 311 310 308 306 305 306 306 306 306 305 304 305
321 319 317 315 314 312 312 311 311 311 312 311 311 311 310 309 309 308 308 307 307 306 306 305 305 305 305 305 306 306 305 304 304 304 304 304 304 304 304 303 302 303 303
321 320 317 316 314 314 313 312 312 311 308 306 305 304 303 304 304 303 304 303 303 303 302 302 302 301 301 304 306 306 306 305 305 304 304 305 305 304 304 303 301 302 301
320 320 319 319 318 316 314 313 311 308 305 303 302 301 300 299 298 297 296 297 296 296 296 295 296 297 299 301 303 303 304 303 303 304 302 302 302 301 301 301 302 301 300

GFSMW_925_thetae_006.txt.gz
Theta_e
340 342 351 353 352 353 354 355 356 355 354 353 352 351 349 346 346 346 345 345 344 344 343 341 341 341 345 344 341 342 342 343 344 346 346 346 347 347 347 347 348 347 347
346 342 340 344 349 355 355 354 353 354 354 352 352 349 348 346 344 343 342 343 342 343 341 342 341 340 342 344 342 343 343 342 340 344 342 341 343 344 343 346 347 347 347
347 343 340 340 347 347 351 354 353 353 353 352 350 348 346 345 344 342 341 341 341 340 339 339 340 340 341 344 343 341 343 342 342 343 340 340 340 342 345 346 348 347 347
340 344 337 333 332 333 340 342 351 353 352 351 348 346 344 344 342 341 340 337 338 339 338 339 340 340 340 343 343 343 342 342 343 344 343 342 342 340 339 341 344 346 347
347 344 339 335 337 337 341 345 352 352 350 349 346 344 342 342 341 339 339 339 339 339 338 337 339 340 340 341 343 343 344 342 342 342 342 343 342 341 340 341 340 342 343
349 345 339 340 343 348 349 348 353 350 349 347 343 339 340 337 338 339 340 341 340 340 338 338 340 341 341 342 342 344 343 343 342 341 340 340 342 341 341 340 340 340 341
353 348 344 347 353 339 342 352 349 348 345 344 341 341 338 339 340 340 340 340 340 341 339 339 341 342 342 342 342 342 343 343 342 341 339 339 340 341 339 340 340 339 341
352 347 341 346 352 351 353 350 348 346 345 343 342 340 338 339 339 339 339 339 338 339 339 339 340 341 342 341 341 342 343 344 342 341 338 339 340 340 337 341 340 337 338
344 345 349 348 350 353 351 348 346 345 345 343 343 339 338 338 339 338 338 337 338 339 339 339 340 340 341 341 342 341 341 342 342 341 339 340 340 340 341 341 339 339 337
345 344 347 345 348 350 348 346 346 344 343 344 343 338 337 337 337 338 339 339 339 340 340 341 341 341 341 341 341 340 341 341 341 340 339 340 340 339 340 339 339 338 339
345 342 339 343 345 346 345 346 345 343 343 344 343 337 339 338 338 339 340 338 338 339 340 340 341 340 340 340 339 339 340 340 339 340 340 340 341 338 337 338 337 338 338
347 341 339 343 343 344 344 345 344 343 343 343 344 338 339 340 339 337 339 339 339 338 340 340 339 340 340 340 340 340 340 339 339 338 336 335 336 335 338 338 337 338 338
348 345 341 342 343 344 343 343 343 342 342 343 345 341 338 341 339 338 338 338 338 339 339 338 338 339 339 339 338 338 337 336 337 337 338 337 335 334 335 333 332 332 334
348 345 341 341 344 345 342 340 339 341 344 345 342 343 341 341 340 340 338 337 338 339 336 335 335 335 335 335 334 333 333 332 332 332 332 332 332 330 328 328 329 330 329
340 345 345 345 347 347 345 342 338 342 344 346 342 341 340 341 342 339 337 334 336 337 336 334 334 334 334 335 334 334 333 333 332 330 330 331 332 331 330 331 330 329 328
343 348 344 339 338 338 338 342 343 342 344 345 343 340 341 342 341 340 339 333 334 333 333 333 332 333 332 331 331 331 330 329 328 328 328 328 330 330 329 329 328 328 328
342 341 336 332 329 330 331 334 338 340 343 343 343 341 340 340 339 338 338 335 334 332 330 330 332 331 330 330 329 329 328 327 326 325 325 324 323 323 324 324 326 327 329
339 333 329 326 325 326 328 332 336 338 340 342 343 340 340 339 338 337 335 332 331 329 327 326 327 330 331 330 329 328 326 324 321 319 318 321 318 314 315 316 315 313 316
330 326 324 323 323 324 326 328 330 330 335 341 341 339 339 336 334 332 330 328 327 324 323 324 326 328 330 327 324 323 322 318 315 316 318 317 311 308 310 310 311 310 310
325 323 322 321 320 321 323 325 322 323 325 329 336 338 336 334 329 325 323 321 320 317 318 319 320 320 320 319 319 318 314 312 313 315 316 313 311 313 313 312 312 311 310
321 320 319 317 317 319 319 318 316 315 318 323 327 330 330 330 326 324 320 320 318 315 313 312 312 315 315 312 312 312 311 310 309 309 310 312 312 311 310 310 310 309 309
320 318 316 315 315 315 315 313 312 313 316 318 320 319 321 318 320 320 316 314 314 311 310 311 311 311 311 312 311 308 307 308 308 309 310 310 309 310 310 310 310 310 309
319 317 315 314 313 313 313 312 311 313 314 314 312 311 311 312 311 313 310 310 310 310 309 309 309 309 310 310 310 309 310 310 310 308 306 305 305 305 304 303 303 303 303
318 316 315 314 313 312 312 312 312 312 312 311 310 309 310 309 310 310 309 309 308 308 307 307 306 307 308 309 309 307 305 304 304 304 304 304 303 303 302 302 302 302 301
318 317 315 314 313 313 312 312 311 310 308 307 307 308 308 307 308 306 307 308 308 308 307 306 305 305 304 304 304 304 304 304 304 304 304 304 304 304 303 301 301 300 300
317 316 315 315 314 313 311 310 309 309 306 303 302 301 300 300 299 297 296 296 296 297 299 301 303 303 305 305 304 304 303 303 304 302 301 301 300 300 302 301 299 299 300

GFSMW_925_thetae_009.txt.gz
Theta_e
342 345 348 349 348 347 352 354 355 354 352 351 351 352 351 349 348 346 345 344 344 344 343 343 342 343 341 343 343 343 342 342 344 345 345 346 348 347 347 346 347 347 347
346 346 347 345 340 335 348 342 343 343 348 350 350 351 348 348 346 345 345 344 344 343 343 342 341 341 339 341 343 343 342 341 343 343 341 340 343 347 346 346 347 347 346
346 346 343 342 342 343 341 335 340 340 347 349 351 349 347 346 344 343 342 341 341 342 341 341 340 340 340 340 342 343 342 342 341 340 340 337 338 339 344 343 346 347 347
344 343 342 337 340 339 336 331 334 340 347 349 349 347 346 343 342 341 340 340 338 338 339 340 339 340 340 340 339 343 342 341 342 341 341 341 340 336 338 344 346 347 347
341 341 340 336 336 339 332 335 335 340 348 350 348 345 343 341 340 337 338 338 338 338 338 338 338 339 340 340 340 342 343 342 340 340 342 341 342 340 336 336 337 343 345
339 341 340 336 331 335 338 339 339 346 349 348 345 340 340 337 339 339 339 339 339 339 339 338 337 338 339 340 340 342 343 342 342 340 341 341 341 340 339 336 337 338 338
348 345 340 340 342 342 341 342 345 349 347 344 340 340 338 339 339 340 339 338 339 340 339 338 338 339 340 340 340 342 342 343 342 341 341 340 340 340 340 339 337 336 340
348 345 342 343 347 346 347 350 349 346 344 341 341 338 338 338 338 338 337 338 337 338 339 340 340 340 341 341 341 341 342 342 342 342 341 339 339 340 340 339 339 336 336
345 342 343 348 345 342 347 348 346 345 344 342 341 337 337 336 338 338 338 338 339 340 338 338 339 340 341 341 341 341 341 341 342 342 341 339 338 340 339 340 340 338 338
347 346 346 347 350 351 350 346 344 344 343 343 340 337 336 338 337 338 337 337 339 340 340 340 341 341 341 341 341 341 341 341 340 341 341 340 339 340 340 340 339 338 338
345 346 344 345 350 350 347 345 344 342 343 343 339 337 338 337 337 338 338 338 338 340 340 340 339 340 340 341 341 340 340 340 340 340 340 340 340 340 339 338 337 336 336
346 343 342 343 346 346 345 345 344 342 343 342 341 338 339 338 337 337 337 338 338 339 339 339 339 339 339 339 339 339 340 340 339 339 339 339 339 338 336 337 337 337 338
345 340 340 341 341 342 343 344 343 343 342 343 343 338 339 340 337 337 337 337 338 337 337 337 338 338 338 339 339 339 338 338 338 337 336 336 336 336 337 336 335 335 336
347 343 341 339 341 342 340 342 342 342 343 343 343 342 339 340 339 337 336 338 337 335 335 335 335 334 334 335 335 336 335 335 335 335 336 335 335 335 333 333 333 333 333
344 343 343 342 342 343 341 339 337 340 342 344 342 341 341 341 340 337 335 337 336 334 333 334 334 334 333 332 332 332 331 331 331 331 330 329 328 328 328 329 329 329 330
343 346 341 337 335 334 335 338 340 341 341 344 342 340 339 341 339 335 334 334 333 332 332 332 332 331 331 331 331 332 331 330 329 328 328 328 329 329 329 329 328 328 330
343 339 334 330 327 329 331 334 337 340 342 342 344 340 340 341 339 337 334 333 332 331 331 330 330 329 328 329 329 328 328 326 324 324 323 323 323 324 325 325 326 327 328
337 334 328 325 325 326 328 331 334 336 340 341 342 340 341 338 338 336 334 331 329 329 328 328 329 328 328 328 328 327 325 320 318 319 322 315 315 315 315 315 313 311 312
329 325 323 323 323 324 325 327 328 327 330 333 340 340 340 336 335 334 330 328 326 324 325 325 327 327 326 325 324 324 321 317 317 317 317 309 309 309 310 310 310 310 309
324 322 321 320 321 322 323 323 321 323 324 327 334 338 337 335 334 330 326 322 323 322 322 322 322 321 319 319 320 318 315 315 315 312 310 311 312 312 312 311 311 310 310
321 319 318 317 317 318 319 318 318 316 319 323 328 332 332 330 326 325 323 319 318 317 318 319 316 314 313 312 314 314 315 315 313 311 310 309 310 310 310 310 310 310 310
319 318 316 315 315 316 317 315 314 314 317 319 321 319 319 320 319 319 316 315 314 313 311 312 310 310 311 312 310 310 311 311 310 309 309 310 309 307 306 308 306 308 307
317 316 315 314 314 314 315 313 312 314 314 316 314 313 313 314 313 312 310 311 311 311 310 311 309 308 309 308 308 308 310 311 310 307 305 304 304 303 303 303 302 302 302
317 315 314 313 312 313 313 312 312 313 314 312 311 312 313 312 312 312 310 310 311 309 309 309 308 309 309 309 309 307 306 305 304 304 303 303 302 302 301 301 301 300 301
317 315 314 313 312 312 312 312 312 313 311 310 309 310 310 310 310 309 308 309 309 310 309 308 308 308 306 305 304 304 304 304 304 304 304 303 303 301 300 300 300 301 299
316 314 314 313 313 311 309 310 311 311 308 305 305 304 305 304 304 302 300 302 305 306 306 306 305 304 305 305 304 303 303 304 303 302 301 300 301 301 299 299 299 299 298

GFSMW_925_thetae_012.txt.gz
Theta_e
343 347 347 347 346 341 336 340 345 345 345 347 348 349 349 348 347 346 345 344 344 344 342 342 342 343 343 343 343 342 342 342 342 344 343 344 345 345 345 345 345 345 344
344 347 338 341 345 338 341 340 337 337 342 340 347 349 348 347 346 346 345 343 341 341 341 341 341 340 341 341 340 342 343 342 342 342 340 343 344 346 346 346 346 346 346
344 345 341 336 337 339 336 336 335 338 336 340 347 349 347 346 344 343 342 340 339 339 340 340 341 340 340 340 339 341 343 342 341 342 339 341 345 340 344 345 346 346 347
345 343 341 340 337 338 336 334 335 339 335 339 347 346 345 343 341 340 338 337 337 338 338 339 340 340 339 340 340 339 342 342 341 341 340 339 338 343 346 343 343 344 346
344 343 338 340 343 343 344 342 338 333 336 344 347 345 342 339 337 337 338 338 338 338 338 338 339 339 338 339 339 340 339 342 341 341 340 340 341 339 337 341 340 344 346
340 340 338 336 337 338 336 332 335 337 343 348 345 341 338 337 338 338 339 338 338 339 339 339 338 338 338 339 339 339 339 341 342 341 340 340 340 340 339 340 337 338 336
339 340 338 337 335 335 337 337 337 338 346 346 341 339 337 337 337 337 337 337 337 339 339 338 338 338 337 338 339 339 339 341 342 341 341 340 340 340 340 338 337 339 338
347 343 339 337 337 337 339 340 340 344 346 342 340 337 337 336 337 338 338 338 338 338 339 338 337 337 339 340 340 340 340 341 341 342 341 340 340 339 339 339 338 340 337
348 344 341 341 341 341 342 346 347 348 343 341 340 337 336 336 337 337 337 337 339 339 339 339 339 340 340 341 341 340 341 341 341 341 340 340 339 339 340 340 339 338 343
346 344 344 346 344 343 344 346 347 344 343 341 340 336 336 337 337 337 337 337 339 339 340 340 340 340 340 340 341 340 341 342 341 340 341 341 340 338 339 339 339 339 338
345 345 345 348 345 343 347 347 345 343 343 341 340 336 337 337 337 337 337 337 339 339 339 339 339 339 340 341 340 341 341 341 342 342 340 340 340 339 340 340 339 337 337
343 344 342 345 347 349 347 345 343 342 342 342 340 337 338 337 336 336 336 338 338 337 337 338 338 338 339 339 339 339 339 339 338 340 339 339 339 339 338 337 337 336 336
343 343 342 341 344 345 345 344 344 343 341 342 341 337 339 339 337 336 336 337 335 336 336 336 336 337 337 338 339 339 338 337 338 338 338 337 338 337 337 337 336 336 337
344 344 342 341 341 341 341 343 343 342 342 341 342 339 338 339 338 336 337 336 334 334 334 333 334 334 335 336 336 336 335 334 334 335 336 335 335 334 334 334 334 335 334
344 342 340 338 339 340 340 339 341 341 341 342 343 342 338 339 338 335 336 335 333 334 334 333 333 332 332 332 333 332 331 331 330 329 328 328 328 329 329 330 329 331 332
344 344 341 339 336 336 338 339 338 338 339 341 342 340 340 339 337 334 335 333 332 332 332 331 330 330 330 331 331 331 331 330 329 327 327 328 329 329 329 329 329 329 329
343 339 336 331 328 330 333 335 337 339 340 340 342 339 339 339 335 334 332 331 330 331 330 328 327 327 327 328 328 328 327 326 324 323 323 323 323 323 324 323 323 324 325
336 333 328 324 324 325 327 329 331 332 336 338 340 339 339 339 336 333 331 329 328 328 328 327 326 326 326 326 326 325 322 320 321 315 314 315 314 313 313 313 312 310 310
328 325 323 321 321 321 324 325 325 326 327 331 335 339 339 337 336 333 330 327 326 325 326 326 327 326 325 324 323 322 318 317 316 309 309 310 310 310 310 311 309 308 307
322 319 318 318 319 319 321 322 322 324 324 327 332 336 338 335 334 332 328 325 323 323 323 324 323 321 320 319 317 318 317 313 310 311 312 311 311 311 311 311 310 309 308
320 318 317 316 317 319 320 318 318 317 319 323 327 331 332 330 329 327 323 320 320 320 319 319 316 315 315 314 314 315 314 312 311 309 309 309 309 310 310 310 310 309 308
319 318 316 315 316 317 318 316 315 315 317 320 321 322 322 322 321 321 316 314 316 316 313 312 309 309 310 311 311 314 314 312 310 309 307 306 306 306 306 306 306 307 306
317 316 315 314 315 315 315 314 313 314 315 316 315 316 317 316 314 313 311 311 312 311 310 309 309 307 307 308 308 309 310 310 309 305 304 303 302 302 302 302 302 302 301
316 315 315 313 313 314 314 314 314 314 314 313 312 312 313 313 313 312 313 313 312 310 310 309 308 309 309 308 309 309 308 305 304 303 302 302 301 300 300 300 300 300 299
316 315 314 313 313 313 313 313 313 313 312 311 311 311 311 311 310 310 310 311 310 311 310 309 309 309 307 305 305 305 304 304 303 303 302 301 301 300 300 300 299 298 298
315 314 314 313 312 311 310 309 310 312 311 309 309 309 308 308 308 307 306 307 308 309 309 310 310 307 305 304 304 303 304 304 303 302 301 302 300 299 298 298 298 298 298

GFSMW_925_thetae_015.txt.gz
Theta_e
351 350 351 348 347 347 343 343 337 343 339 344 346 349 351 350 347 347 346 345 344 344 344 346 344 340 340 345 346 344 345 345 346 345 344 346 345 345 349 349 346 348 348
352 348 349 349 345 341 341 336 337 339 338 340 341 346 348 347 346 345 344 343 342 342 342 342 345 341 342 341 342 344 344 344 345 343 345 347 347 347 348 349 349 349 349
350 349 346 346 347 343 343 342 341 336 337 338 339 344 348 346 346 344 342 341 338 339 339 340 341 344 341 339 338 340 342 343 344 345 344 348 345 347 348 349 349 349 350
347 349 345 342 342 341 340 336 337 337 338 336 339 346 348 346 343 340 340 340 337 338 340 340 339 341 341 340 338 339 339 344 344 344 343 343 342 350 350 347 348 349 350
346 348 346 344 343 343 343 340 338 338 340 337 344 347 345 341 339 341 341 341 340 339 340 340 342 341 341 340 338 338 340 341 343 343 344 344 344 342 342 346 346 346 347
345 346 343 343 344 341 342 335 334 336 343 347 346 340 339 339 340 341 340 341 340 341 340 339 341 342 342 340 339 339 340 340 343 344 343 342 343 344 344 346 343 343 343
344 346 345 341 341 342 341 340 340 342 346 346 341 338 337 335 340 341 340 341 340 340 341 339 340 341 340 338 337 340 339 341 343 344 343 343 341 342 342 341 341 342 342
344 345 344 342 341 340 340 340 343 344 348 344 340 337 336 339 340 340 340 340 341 341 341 341 341 340 338 337 337 342 342 342 343 344 344 343 343 340 339 340 340 348 343
349 347 343 342 341 341 344 346 346 348 347 343 341 337 336 339 339 339 339 339 339 340 341 341 342 342 342 341 341 342 342 341 342 343 343 342 340 339 339 341 341 340 343
353 349 346 344 342 343 345 348 349 349 345 343 342 338 338 339 339 340 340 340 338 339 339 339 341 341 342 342 341 341 342 341 342 344 342 342 343 341 340 340 342 342 341
353 351 349 348 345 346 346 348 348 346 345 344 342 338 339 339 339 339 339 339 338 337 338 338 339 339 340 341 340 341 341 339 338 339 340 342 343 343 342 343 342 342 341
351 350 351 349 346 347 348 348 346 345 345 344 343 340 341 340 339 339 339 338 337 336 337 337 337 340 338 339 339 340 339 338 338 338 337 338 340 339 340 340 339 338 337
350 350 349 347 348 351 349 347 345 344 344 344 344 340 341 342 340 339 338 337 336 336 335 335 335 335 335 336 337 337 337 337 337 337 337 337 338 338 339 338 337 337 336
351 351 348 345 348 349 348 346 346 345 344 344 344 342 341 342 341 338 336 335 335 335 334 334 334 334 334 334 333 334 334 334 334 334 334 334 334 334 334 334 333 334 335
352 346 343 344 347 347 346 344 346 345 344 344 343 344 341 341 340 336 334 333 333 332 333 333 333 332 331 330 330 329 329 330 329 329 329 329 330 331 331 330 330 332 332
351 349 346 345 346 345 344 342 342 343 343 343 344 345 343 341 339 335 333 332 331 330 331 331 330 329 327 331 331 329 327 327 326 326 326 327 328 328 328 328 329 329 329
349 347 344 341 339 340 338 338 337 338 341 342 343 344 343 342 337 334 333 331 329 328 328 327 327 325 325 327 328 327 325 323 322 322 321 321 321 322 321 321 323 323 325
344 339 334 332 331 330 332 332 333 335 335 338 340 345 342 341 335 333 331 328 328 327 327 326 326 325 324 324 323 324 322 317 315 315 316 316 315 313 314 313 312 311 311
337 332 330 328 325 326 325 328 330 330 330 330 332 339 339 337 333 331 327 325 325 325 323 325 325 324 323 321 320 319 318 314 314 314 314 314 312 310 312 313 312 311 308
327 327 325 324 322 321 322 324 324 325 324 323 328 334 337 337 332 327 323 322 323 323 322 322 319 320 319 317 318 317 316 314 314 313 311 311 311 311 313 315 314 312 310
324 323 323 322 320 318 320 320 318 318 319 322 326 331 333 331 329 325 320 319 319 318 318 316 313 314 315 315 315 316 313 312 312 311 309 308 310 310 311 312 311 309 305
322 322 320 319 317 317 318 316 316 316 319 320 321 322 323 324 323 321 318 317 316 316 313 312 311 311 312 313 314 314 313 311 309 307 306 305 306 306 307 308 307 304 306
321 320 318 318 316 315 317 316 314 315 317 317 316 315 316 317 317 316 314 312 312 311 309 310 308 308 309 310 312 312 311 311 308 304 303 302 302 302 302 302 302 303 304
320 320 320 319 316 315 314 313 314 315 315 314 312 312 312 312 313 313 313 314 314 313 311 309 308 308 308 309 309 309 307 305 304 303 302 301 301 301 301 302 302 301 301
321 320 319 317 315 313 313 312 313 313 311 310 310 310 310 311 311 310 311 311 311 312 311 310 309 308 308 308 307 306 304 304 303 303 303 303 302 302 302 301 301 301 301
320 318 317 316 313 312 312 312 313 312 312 312 310 309 307 309 308 308 308 309 310 311 310 310 310 308 306 305 304 304 303 303 303 304 304 303 302 301 301 301 300 300 300

GFSMW_925_thetae_021.txt.gz
Theta_e
357 356 356 356 361 360 359 356 355 352 347 347 348 350 350 347 348 352 351 352 352 351 349 349 348 348 348 348 349 348 346 346 345 347 346 343 343 344 350 350 350 350 352
359 358 359 360 361 359 356 354 353 346 344 343 341 351 351 353 351 352 352 351 350 349 350 350 350 349 348 347 347 348 347 349 346 346 344 344 339 341 348 350 350 352 351
361 361 360 357 357 356 353 353 349 346 343 344 348 351 353 354 352 351 347 347 347 346 345 346 346 349 348 348 346 346 347 347 346 346 344 343 341 339 349 351 350 350 349
359 360 356 356 355 354 353 351 352 348 343 340 341 351 354 351 347 345 346 346 347 345 345 345 345 346 346 349 346 346 346 345 345 345 346 344 343 347 348 347 349 350 349
356 354 353 354 354 349 349 350 349 346 348 349 351 352 353 345 345 345 345 346 346 347 345 345 345 346 345 345 348 348 346 344 344 345 344 345 342 344 346 351 345 348 349
352 351 352 353 349 350 348 348 349 348 349 349 352 353 348 347 346 346 345 342 342 345 345 346 345 344 347 346 345 346 346 345 344 341 345 344 344 343 346 350 345 343 342
351 353 353 351 350 349 345 347 348 349 351 352 351 348 348 347 346 346 343 344 343 345 346 346 346 346 346 346 346 347 346 345 344 341 344 344 344 343 344 346 343 343 342
350 351 351 350 349 347 348 349 351 354 352 351 349 348 348 344 344 345 344 345 345 344 346 344 345 344 345 345 345 345 345 345 345 343 345 346 344 342 343 345 346 349 342
348 350 349 348 348 347 348 349 351 352 351 350 349 348 347 346 346 345 345 343 345 345 345 344 344 345 345 345 346 345 345 344 346 345 343 345 343 343 342 342 344 345 345
349 350 350 349 347 348 348 350 351 352 351 349 347 346 346 345 346 345 344 344 345 343 342 343 344 344 345 346 346 347 346 346 346 345 346 346 345 345 345 345 344 343 344
351 350 350 348 347 350 350 350 352 351 348 348 346 345 345 344 344 344 344 343 343 341 341 341 342 343 345 345 346 345 345 345 344 343 343 344 346 346 343 344 345 344 346
351 351 351 349 348 349 349 350 349 347 347 348 347 346 345 345 345 343 343 342 342 342 341 340 340 340 341 342 342 341 340 341 341 342 342 343 342 344 345 346 346 345 345
353 353 352 349 348 349 347 347 345 346 346 348 347 346 346 346 345 343 342 341 341 341 340 339 338 340 341 340 339 337 335 334 334 335 336 337 338 337 337 337 338 339 340
355 354 354 352 350 347 347 348 346 345 347 347 346 346 346 346 346 343 341 341 340 340 338 338 337 338 338 337 336 336 334 331 330 331 331 331 332 332 333 333 334 335 335
354 357 356 352 348 348 349 349 347 347 347 347 346 347 347 346 346 343 341 340 339 339 338 336 336 335 334 334 336 334 333 332 328 327 329 329 329 330 330 332 332 332 332
354 356 352 347 347 349 350 348 349 349 347 347 346 347 348 347 347 344 341 340 338 338 337 336 334 334 330 331 332 333 333 331 331 330 329 327 325 326 327 328 329 330 331
354 355 349 348 350 350 350 350 350 352 351 350 349 348 349 348 347 344 341 339 337 336 336 334 334 332 327 328 330 331 331 331 329 328 326 325 323 325 323 323 323 321 324
354 351 347 350 352 352 351 350 348 349 349 349 348 348 349 350 348 345 341 338 336 335 334 333 331 329 324 326 325 328 329 328 327 326 326 325 322 321 321 318 315 313 315
353 350 350 350 348 347 347 348 348 347 346 344 340 340 342 346 345 344 340 338 335 334 332 332 331 329 324 323 324 326 327 326 325 321 320 320 318 318 320 319 316 313 310
353 350 346 343 341 339 342 344 342 340 337 333 332 332 331 339 341 341 338 336 333 333 331 330 328 325 324 321 323 323 326 324 321 318 315 314 315 318 321 322 321 319 318
345 343 342 341 338 336 336 337 334 330 329 329 328 326 331 335 339 338 335 334 334 330 328 325 323 322 319 319 320 323 325 324 322 318 314 312 312 314 318 319 319 317 314
340 342 339 336 334 333 334 332 327 326 326 325 323 320 323 326 329 331 330 330 330 328 325 324 323 317 314 316 317 318 319 318 317 314 311 309 311 312 311 311 310 310 311
340 339 336 331 329 329 329 327 325 324 324 322 320 316 317 318 319 322 322 323 323 321 318 317 313 312 312 312 312 312 312 312 314 311 306 304 305 305 305 305 306 307 309
336 334 334 331 327 326 326 325 324 323 323 320 316 313 313 313 314 314 315 316 317 315 314 312 312 311 311 310 311 309 310 309 306 304 306 306 306 305 305 306 307 308 307
332 331 330 328 325 324 324 324 323 323 322 321 318 316 312 311 312 312 312 312 312 313 313 313 313 314 312 310 309 309 309 309 307 304 306 307 309 309 308 307 307 307 307
329 328 326 325 324 323 323 323 322 323 323 322 320 317 315 313 312 310 308 310 311 312 311 311 311 311 311 309 309 309 309 306 305 307 310 310 309 308 308 307 307 306 305

GFSMW_925_thetae_024.txt.gz
Theta_e
357 354 354 354 358 359 359 359 354 353 350 344 342 344 350 350 346 340 347 333 336 348 349 349 347 345 345 348 347 347 345 342 346 347 347 347 348 348 347 350 349 348 348
360 358 358 365 363 362 360 358 357 353 345 339 340 347 350 351 352 349 350 348 348 349 349 348 345 346 346 346 346 346 346 345 346 347 346 349 345 345 348 347 351 349 351
361 363 360 363 361 360 358 356 355 349 346 341 343 344 344 350 348 348 348 349 348 346 345 344 344 344 344 345 345 343 344 345 344 346 345 349 346 346 348 349 349 350 350
360 362 362 358 356 358 356 356 351 348 344 343 343 349 349 346 348 346 347 344 346 347 346 345 345 345 344 344 345 344 343 343 344 344 344 345 347 348 346 346 347 349 348
359 360 359 357 355 355 354 356 352 349 346 346 344 349 348 349 346 346 344 345 344 347 346 345 346 344 344 345 343 344 344 343 345 342 343 344 345 345 346 349 347 347 347
358 357 356 356 353 350 351 351 351 350 351 351 352 355 351 348 348 344 347 344 346 346 344 347 345 344 344 344 344 344 345 343 343 343 343 341 344 344 344 347 347 345 342
354 358 357 356 351 350 348 351 350 351 351 352 352 350 350 349 348 347 345 346 346 346 345 344 344 343 344 345 345 342 342 343 342 343 343 340 341 342 343 344 346 345 343
354 355 354 352 351 349 348 349 351 351 353 353 350 350 349 349 347 346 345 346 346 346 344 345 343 344 345 345 345 346 344 343 343 344 342 340 343 341 343 341 344 347 345
353 354 352 351 351 349 350 351 354 354 354 349 350 349 348 347 347 346 343 344 345 344 342 343 344 343 345 346 346 346 344 344 343 345 345 343 343 341 344 343 342 344 347
351 352 350 350 350 349 350 351 353 353 351 350 349 348 347 346 344 344 344 343 341 342 341 341 341 343 344 346 344 344 344 345 344 343 343 342 343 341 343 343 344 343 343
349 353 350 349 348 349 349 351 352 353 351 349 347 347 346 346 343 344 341 341 341 341 340 340 340 340 342 342 343 342 344 343 343 341 342 343 343 343 342 343 343 343 342
351 351 350 349 349 350 350 350 353 351 348 349 347 347 346 346 342 344 343 341 341 339 338 338 341 341 339 338 339 339 340 339 339 341 341 341 341 342 343 343 343 343 343
355 353 353 351 349 351 350 350 349 349 349 349 348 347 347 345 344 342 342 340 339 339 337 337 339 337 337 337 336 335 334 334 334 334 334 335 335 336 337 337 339 339 339
358 357 357 354 353 349 347 347 346 346 347 349 348 347 347 347 345 344 342 340 340 340 338 336 335 335 336 334 333 333 331 331 330 331 330 330 331 333 333 334 334 335 335
359 360 358 359 353 350 350 348 347 346 348 348 347 347 346 346 345 343 342 340 338 338 338 337 335 334 333 334 334 332 331 330 330 328 327 327 329 330 332 332 332 332 333
359 360 359 353 351 347 350 350 348 348 348 348 347 347 347 346 345 344 342 340 338 337 337 336 334 330 329 332 332 332 330 329 329 328 327 326 324 324 327 328 330 331 331
359 360 355 351 351 351 353 349 352 353 351 351 350 348 347 346 346 344 341 340 337 337 336 335 332 328 328 330 330 331 330 328 328 328 326 326 324 325 323 322 320 322 324
359 357 351 350 352 351 353 353 351 351 351 349 347 345 346 348 347 344 341 339 336 334 334 332 330 325 326 327 329 329 328 327 326 325 324 322 320 320 317 313 312 314 316
360 352 351 353 351 351 350 350 349 349 345 342 340 338 337 341 348 344 340 339 335 333 332 331 330 327 324 324 325 327 326 325 322 320 321 320 318 320 320 317 314 312 311
353 353 352 347 346 345 347 347 343 339 336 334 331 330 330 337 344 343 339 337 335 333 332 330 328 326 322 323 323 325 326 323 320 317 314 315 318 320 323 322 321 320 318
348 347 344 342 341 341 343 339 335 331 330 328 327 326 329 334 339 339 338 335 333 332 328 326 323 322 320 320 321 324 324 325 321 317 314 312 313 317 320 321 320 318 315
345 343 340 338 337 338 336 331 328 327 325 324 321 322 324 328 331 333 333 333 331 328 326 325 318 318 316 318 319 319 320 320 317 314 312 311 312 313 313 313 312 311 310
343 338 334 333 331 333 331 327 325 324 323 321 319 318 319 321 323 325 326 327 327 325 322 319 315 313 314 316 315 314 315 315 314 311 306 306 306 306 305 306 307 308 309
338 335 333 331 329 328 326 326 324 323 321 319 317 315 316 316 317 318 319 319 318 318 317 315 313 313 312 312 311 311 312 311 310 306 306 306 306 305 307 308 308 307 307
334 333 331 328 326 325 325 324 324 324 322 321 318 316 315 313 313 314 314 314 314 314 314 314 314 314 314 311 309 309 309 309 308 305 306 306 306 308 309 308 308 308 308
332 331 330 327 326 325 324 325 324 324 324 322 321 319 317 316 314 312 311 312 312 313 313 313 313 313 312 311 309 310 310 310 306 307 309 311 311 309 308 308 308 307 306

GFSMW_925_thetae_027.txt.gz
Theta_e
353 353 354 356 356 359 357 356 354 354 349 343 339 343 345 348 348 348 342 344 343 337 344 347 346 346 346 346 344 344 345 344 343 345 340 344 345 344 346 347 349 348 349
354 361 362 360 360 359 359 356 353 351 345 339 339 339 341 347 351 351 348 347 348 347 348 347 345 345 344 343 344 344 343 342 343 339 335 339 343 345 346 347 346 348 348
360 364 364 363 361 360 358 357 354 348 344 340 342 344 341 346 345 346 347 348 348 348 346 345 343 343 343 342 342 342 343 344 343 340 343 341 340 342 345 347 346 345 347
361 361 363 360 359 358 357 355 353 346 344 342 342 346 347 348 347 348 345 344 344 347 347 345 345 345 345 344 343 343 343 343 344 343 343 343 343 340 340 346 346 345 346
361 360 357 356 358 355 357 355 352 345 343 341 339 344 348 348 348 344 345 346 346 345 343 343 345 344 344 343 343 344 342 343 343 343 342 342 342 343 341 340 342 345 347
360 359 356 354 359 356 357 355 350 347 345 350 350 353 350 347 347 345 344 346 346 345 343 343 343 343 344 343 344 344 342 342 343 342 343 342 342 341 343 340 340 341 343
358 356 354 354 350 350 354 354 348 351 351 350 352 350 349 349 348 344 345 345 345 344 343 344 344 344 345 345 343 343 341 342 342 342 342 342 342 340 341 342 340 340 343
356 355 354 350 351 349 351 351 347 351 350 353 349 349 349 346 346 344 344 344 342 344 341 342 343 343 345 346 345 345 344 342 342 342 342 342 340 340 341 342 341 340 340
354 353 352 351 350 349 349 352 351 349 353 351 349 348 347 346 344 343 342 341 341 341 340 340 342 344 345 344 344 345 345 345 343 342 341 340 337 339 342 342 343 340 339
353 352 351 351 350 347 348 349 350 353 353 349 348 347 346 343 344 343 340 340 340 339 339 339 339 341 342 342 343 343 343 342 342 343 343 342 342 342 342 342 342 342 341
352 350 349 351 349 349 352 354 353 352 350 348 348 346 346 343 343 341 340 341 339 337 338 339 338 338 338 339 340 339 339 339 340 340 340 341 342 341 340 340 341 342 342
350 348 348 350 349 348 347 344 344 350 349 348 346 347 345 342 343 342 340 339 338 337 337 337 337 336 336 335 335 335 335 335 336 337 337 337 338 339 339 340 340 341 342
349 348 348 347 348 344 338 335 338 348 349 347 347 347 346 342 342 340 339 339 338 336 335 335 336 334 334 333 333 332 332 333 333 333 333 333 334 334 335 337 338 338 339
351 349 348 348 349 342 342 336 344 349 349 348 347 348 346 344 342 341 339 338 338 336 336 335 334 334 333 332 331 331 330 330 328 329 330 330 331 332 333 334 334 334 334
355 352 353 349 350 346 343 345 348 349 347 349 347 347 347 345 343 342 340 338 337 337 337 334 332 332 332 332 331 330 329 328 327 326 326 327 329 331 331 331 332 332 331
356 356 352 350 350 349 348 349 348 347 348 348 348 347 347 344 343 342 340 337 337 337 335 334 330 331 331 331 330 329 329 328 326 326 324 323 322 323 326 329 331 331 329
356 353 348 348 347 344 348 352 351 350 350 349 348 348 347 345 344 342 340 337 336 335 334 331 327 329 329 329 330 328 328 328 327 326 324 322 322 319 322 322 324 325 327
355 349 348 348 342 349 353 353 351 351 349 346 344 345 346 347 345 343 340 338 336 334 332 330 326 326 327 327 328 327 326 325 325 323 320 319 318 316 313 314 313 313 316
349 348 348 351 353 351 350 350 348 342 339 336 335 335 336 341 347 342 340 337 335 333 331 330 327 324 324 324 327 325 325 323 321 320 319 318 320 319 318 317 314 314 313
350 349 349 347 347 348 346 341 335 334 332 331 330 330 333 338 343 342 340 337 334 333 331 328 327 322 322 322 323 327 323 319 317 316 315 318 320 321 320 319 319 316 316
343 343 342 341 342 340 338 333 331 329 328 327 327 330 333 336 340 340 338 336 333 331 328 327 323 321 320 320 322 324 324 320 317 316 314 314 315 319 320 321 319 316 316
339 339 337 337 337 335 335 329 327 326 325 324 323 325 328 331 334 337 336 334 331 327 325 322 320 318 317 318 319 320 319 317 317 315 313 312 313 313 313 313 311 309 308
336 334 333 332 332 331 330 326 325 324 322 321 321 322 324 326 327 329 329 329 327 325 321 320 317 315 315 315 316 315 316 316 315 312 306 306 307 304 306 307 307 308 307
334 332 331 329 328 327 326 325 323 322 320 319 318 319 320 319 320 322 322 323 321 320 318 316 315 314 313 312 312 311 312 311 309 307 307 307 306 306 308 308 308 306 307
334 331 328 327 326 325 325 324 323 321 319 318 317 316 316 317 316 316 315 316 316 316 316 315 315 315 313 310 309 309 310 310 307 306 306 307 307 307 308 309 308 308 307
332 329 327 326 326 324 324 324 323 322 320 318 317 316 315 314 314 314 313 313 314 314 314 314 314 314 313 311 310 310 310 310 306 307 308 309 310 311 308 307 308 306 306

GFSMW_925_thetae_030.txt.gz
Theta_e
351 352 352 353 355 356 355 355 353 350 346 340 340 339 341 347 347 346 346 343 346 340 341 344 346 347 346 345 345 345 343 341 338 336 340 343 343 343 343 344 340 347 345
353 355 358 358 357 356 355 353 351 347 345 342 339 341 343 345 347 346 347 347 347 346 347 346 344 342 342 343 343 343 344 344 344 341 337 335 337 338 342 345 344 346 346
361 360 360 359 357 357 354 352 351 349 343 338 341 340 340 342 346 347 346 346 346 347 347 346 345 343 344 344 344 343 342 343 342 343 339 338 340 338 341 343 344 345 346
361 359 359 359 358 358 356 354 351 346 341 340 339 343 347 347 347 345 346 345 346 345 343 342 343 344 344 344 343 343 344 343 343 341 339 339 340 340 340 342 345 346 346
362 362 359 358 358 357 356 353 348 345 344 342 343 341 347 348 344 345 344 346 345 344 342 343 343 343 343 343 343 343 344 343 343 342 342 341 342 342 340 341 340 344 343
360 357 356 357 356 356 354 353 347 344 343 341 344 351 348 347 347 344 345 345 344 342 341 343 343 344 344 345 344 343 343 342 342 342 342 341 341 341 341 340 339 338 342
358 354 352 354 354 356 354 352 345 345 346 350 352 349 348 348 344 345 343 342 342 340 341 342 342 343 344 344 343 343 342 342 342 342 342 342 342 341 340 340 339 338 341
357 353 350 350 351 355 354 351 345 349 350 351 349 348 346 345 343 342 342 341 340 339 340 341 343 344 344 345 344 344 343 342 342 342 342 342 342 341 340 340 339 339 338
350 352 348 349 349 352 352 350 349 351 351 349 348 347 345 344 342 341 340 339 338 338 339 339 341 342 343 343 343 343 344 343 342 342 342 341 339 339 340 341 341 339 337
352 350 348 348 348 349 350 349 347 349 352 348 346 346 343 343 342 340 340 338 337 337 338 337 338 339 341 342 342 341 341 341 342 342 342 342 342 342 342 341 342 338 338
351 350 348 349 348 348 349 350 349 349 349 347 346 346 343 343 340 339 339 337 336 337 336 337 336 335 336 337 337 337 337 337 338 338 339 340 340 340 341 341 340 341 340
349 349 348 347 346 348 348 346 343 338 346 347 347 346 342 342 340 339 338 337 335 335 335 335 335 334 333 333 333 334 334 334 334 334 335 335 337 338 339 339 340 340 340
342 345 346 345 344 346 347 342 332 336 345 348 346 345 342 342 340 339 338 337 335 335 335 334 333 332 332 331 331 331 331 331 331 332 332 333 334 334 335 336 337 338 338
339 345 345 343 343 341 334 337 333 344 348 346 347 345 344 342 340 339 338 337 336 335 334 333 333 332 331 330 330 329 327 327 328 329 330 330 330 332 333 333 333 334 335
338 346 344 343 341 334 334 337 339 346 348 347 346 347 344 342 340 339 338 337 335 336 334 332 332 332 330 330 329 328 327 325 324 325 326 327 329 330 331 332 331 331 331
351 348 348 345 342 342 338 335 342 347 348 347 347 347 345 343 341 339 338 336 336 335 333 331 331 330 330 329 329 328 327 325 325 324 323 322 322 325 328 330 330 329 328
352 349 349 347 346 345 343 342 345 348 348 349 348 348 346 344 341 341 338 336 336 335 333 328 330 329 329 329 328 328 327 326 325 322 321 316 315 321 322 324 326 327 326
348 348 347 346 345 347 351 349 348 348 347 347 346 346 345 344 342 340 338 336 335 333 331 327 328 327 326 328 327 326 325 325 322 320 319 318 316 312 313 313 314 317 320
343 347 346 345 345 351 349 347 343 342 339 339 338 338 339 344 343 341 339 336 334 332 330 327 325 325 323 326 326 325 324 322 321 319 318 320 319 318 316 316 314 310 309
345 347 347 349 350 346 345 344 342 333 331 331 330 331 333 338 344 342 339 336 333 332 330 327 324 322 322 321 326 324 321 319 317 315 317 319 320 321 319 319 317 315 313
340 342 342 340 339 340 343 339 332 330 328 327 329 331 333 338 341 341 338 335 333 330 327 326 323 320 319 320 322 325 322 320 317 314 314 314 316 318 319 319 316 314 313
336 336 334 334 335 334 335 328 326 325 325 325 327 329 332 335 338 339 336 334 332 328 324 322 321 317 317 319 318 320 322 319 317 314 313 312 311 311 311 309 308 308 309
334 333 332 331 331 331 331 325 323 323 323 324 324 326 328 330 332 333 333 331 329 325 321 320 317 316 316 315 316 316 315 315 314 308 306 306 305 306 307 307 306 307 308
332 331 330 328 327 326 326 324 323 322 321 321 321 322 324 325 326 327 327 326 323 322 319 317 316 315 313 312 311 311 311 309 307 307 307 306 306 306 307 307 307 307 306
331 330 328 326 325 325 324 323 322 321 320 319 319 320 321 321 320 320 320 320 319 319 318 317 316 314 313 310 310 310 310 309 306 306 307 308 309 309 308 308 307 306 306
329 328 327 326 325 324 324 323 322 320 319 317 317 317 318 317 317 317 315 315 315 316 316 316 316 315 313 311 311 311 310 309 306 307 307 307 310 307 307 307 307 306 305

GFSMW_925_thetae_033.txt.gz
Theta_e
350 351 352 353 353 353 354 355 352 350 349 346 339 340 343 346 346 346 346 343 343 343 338 343 345 346 345 345 345 345 345 343 340 336 337 336 336 342 343 343 343 344 344
351 352 354 354 354 354 355 354 351 349 346 340 339 340 340 345 345 346 346 346 347 346 347 347 346 343 343 342 343 343 343 343 341 339 337 338 337 338 339 341 341 342 343
353 357 357 355 354 354 354 351 349 346 342 339 340 341 341 341 345 346 347 345 346 346 346 345 344 343 343 344 344 343 343 342 342 342 339 336 339 337 339 339 341 343 343
356 357 356 355 354 354 353 351 349 345 341 340 342 342 345 346 346 345 345 345 344 343 342 341 342 343 343 343 343 343 343 343 342 341 342 338 338 339 339 339 339 342 344
358 358 356 355 356 355 353 351 348 342 339 341 341 342 347 345 344 344 345 345 343 341 341 342 342 342 343 344 344 343 343 344 343 341 340 340 341 341 339 340 338 338 342
359 354 357 356 356 354 352 349 347 344 343 342 342 349 347 346 344 344 344 342 341 339 340 342 342 343 343 344 343 342 343 344 342 342 341 341 340 340 339 338 339 338 340
344 336 332 352 354 353 351 348 345 344 342 342 352 348 347 346 343 343 341 340 339 339 340 342 343 343 344 344 344 343 342 341 342 342 342 341 341 340 340 339 338 337 338
335 337 337 350 354 352 350 346 344 344 349 350 348 347 345 343 342 341 339 338 338 338 338 340 342 343 344 344 344 343 342 341 341 341 341 341 341 341 340 339 338 339 337
340 336 345 349 353 352 351 345 346 349 349 349 347 345 343 342 341 339 338 337 338 337 337 337 340 342 342 342 342 342 341 342 342 341 341 341 340 340 341 340 339 339 339
341 349 346 347 352 353 351 346 348 349 351 348 346 345 342 342 340 339 338 336 337 336 336 336 337 338 339 339 340 340 340 341 341 341 341 341 342 341 340 341 341 340 338
351 348 346 346 349 350 349 347 349 348 348 347 346 344 342 341 339 339 337 335 336 335 335 335 334 334 336 336 336 336 336 336 336 337 339 339 340 341 341 341 341 339 337
349 348 346 345 346 347 348 347 346 344 342 347 346 345 343 340 339 337 336 335 335 334 334 333 332 332 332 333 333 334 333 334 333 333 334 335 336 338 338 339 339 340 339
349 348 346 344 345 345 347 347 344 338 339 347 346 345 342 341 338 337 336 335 334 334 333 332 331 330 330 330 329 330 329 330 331 331 331 332 333 334 334 336 337 337 338
345 347 345 343 344 345 346 345 339 334 340 347 347 345 343 341 338 338 337 335 335 334 333 332 331 330 329 328 327 326 327 328 329 329 328 329 331 332 332 332 333 334 334
337 341 345 342 343 343 344 343 337 335 343 347 346 345 343 341 338 338 337 336 335 334 332 331 331 330 329 328 327 325 324 324 323 323 324 326 329 330 331 330 330 331 330
342 345 345 343 341 338 337 337 334 337 345 348 346 345 344 341 339 338 337 335 336 333 332 330 330 329 329 328 328 326 325 325 324 321 317 323 325 327 329 329 328 328 328
341 346 336 344 342 339 336 336 334 338 345 347 346 345 346 342 340 338 337 336 334 333 330 329 329 328 328 328 327 327 325 324 321 318 315 319 319 320 323 326 326 325 325
340 342 334 345 344 338 342 338 340 345 347 347 347 346 345 342 341 339 336 336 334 333 330 327 327 327 328 327 326 325 325 322 319 319 318 314 312 312 313 316 319 321 321
338 344 345 345 344 345 343 343 345 345 345 343 341 340 343 343 341 339 337 335 333 331 328 326 325 325 326 327 325 324 323 321 319 318 319 319 317 315 316 312 311 314 315
343 342 344 345 345 344 343 344 344 342 337 339 335 334 334 337 340 340 338 335 332 330 327 324 322 322 322 323 325 323 320 319 316 316 318 319 320 318 318 317 312 310 309
338 341 341 339 338 339 340 340 337 332 334 333 331 330 333 335 339 341 339 335 333 329 326 325 322 320 319 320 324 324 320 318 316 313 313 314 316 318 320 318 315 314 314
334 335 334 333 335 335 334 331 329 329 328 328 328 330 333 335 338 340 336 334 331 328 324 321 319 318 317 319 321 323 320 318 316 314 312 310 311 310 307 307 306 308 309
334 333 332 330 331 332 330 326 323 324 324 325 327 328 330 332 336 337 335 332 328 325 321 320 318 317 318 318 316 319 317 316 313 307 305 305 306 306 307 305 306 307 309
331 332 331 328 326 327 326 325 322 322 322 321 323 325 327 328 330 330 330 329 325 322 320 319 317 315 313 311 313 314 314 311 306 307 306 305 305 306 307 307 307 306 305
329 330 328 326 324 324 323 323 321 321 319 320 321 322 323 323 324 324 322 323 322 322 321 319 317 315 312 310 310 310 309 308 306 306 308 309 309 309 308 308 307 306 305
328 327 327 326 325 324 323 322 321 320 319 319 320 321 321 320 320 320 318 318 318 318 318 317 317 316 313 311 312 311 310 307 306 307 307 309 307 307 306 306 307 306 304

GFSMW_925_thetae_036.txt.gz
Theta_e
350 350 350 352 352 352 353 353 352 350 347 347 343 340 341 341 338 343 344 345 343 344 341 340 344 344 345 345 344 344 344 344 343 340 337 338 337 337 338 339 338 342 344
351 350 352 352 353 353 353 354 351 349 346 341 339 339 339 340 342 344 346 346 346 345 346 346 346 346 343 342 342 343 342 342 342 338 337 343 338 337 338 342 342 342 342
351 354 354 353 353 353 353 353 350 347 342 339 340 341 341 341 344 345 345 344 344 345 344 343 342 342 343 343 343 343 342 344 341 339 340 340 343 338 338 338 339 340 342
346 339 335 332 337 351 352 350 347 344 339 340 340 341 344 345 344 345 344 344 343 342 341 341 342 342 342 342 343 343 343 342 341 339 340 337 337 339 338 338 338 342 343
344 339 337 333 333 336 346 350 346 342 338 341 343 344 346 344 344 344 344 343 341 339 339 340 342 342 343 343 344 343 343 343 342 341 340 341 340 340 340 342 338 338 342
342 335 333 332 337 338 338 349 345 340 340 340 342 345 345 343 343 344 343 340 339 339 340 342 342 342 343 344 342 342 343 343 343 343 341 340 340 340 340 339 338 338 340
343 340 340 338 336 335 344 348 344 341 342 341 350 346 346 344 343 341 340 338 338 338 339 341 342 343 344 343 343 342 342 342 342 342 341 341 340 340 340 339 338 338 338
338 340 339 335 332 342 349 347 344 344 342 348 348 346 344 342 341 339 338 337 337 337 337 338 341 342 343 343 343 342 342 341 341 341 341 341 341 340 340 339 338 338 337
339 339 338 344 350 350 349 344 343 344 349 349 346 344 342 341 340 338 337 337 336 336 336 336 339 340 340 341 340 340 341 341 341 340 340 341 341 341 341 339 338 337 339
339 340 344 348 352 350 349 344 344 348 348 347 345 343 342 341 339 338 336 336 336 335 335 334 336 337 337 337 338 338 338 339 339 340 341 341 340 340 340 341 339 339 337
340 345 346 347 352 352 349 344 348 348 346 346 345 342 342 340 339 337 335 335 335 334 333 332 333 334 334 334 334 334 335 335 335 336 338 338 339 340 341 341 341 339 337
344 347 346 346 348 349 347 346 348 344 343 336 345 342 342 340 338 336 335 334 334 333 332 331 331 331 331 332 332 332 332 332 332 333 334 335 336 337 338 339 339 340 337
347 347 345 343 344 346 346 347 346 341 338 345 345 344 342 340 338 336 335 334 333 332 331 330 330 329 327 328 329 329 330 330 329 329 330 331 332 333 334 335 336 337 336
339 345 343 342 343 344 346 346 344 341 342 346 345 345 342 340 338 336 335 334 334 332 331 330 330 328 327 325 326 327 327 326 327 328 329 330 331 330 331 332 331 332 332
335 338 343 341 341 340 343 342 338 339 343 347 346 345 343 341 338 337 336 335 334 332 331 330 329 329 328 326 324 324 324 323 321 323 326 328 329 329 329 329 330 331 330
340 340 340 341 338 338 339 338 336 336 339 344 347 345 342 341 339 338 336 335 334 332 330 330 328 328 328 327 326 325 324 319 315 320 321 322 325 328 327 327 327 327 328
338 343 343 336 334 333 333 334 335 336 337 344 346 345 344 342 340 338 336 335 333 331 329 329 328 328 328 327 326 325 323 321 317 314 314 314 317 322 325 325 324 324 325
334 341 343 337 337 336 333 332 332 337 335 343 346 345 344 343 340 338 336 335 333 331 328 327 326 327 327 325 325 324 323 320 318 318 316 315 314 312 315 319 320 320 321
334 340 342 343 337 336 335 334 338 338 340 342 345 345 343 342 340 339 337 335 332 330 326 325 324 326 326 324 323 323 321 319 318 319 319 317 316 315 311 311 315 315 313
337 341 344 344 343 337 338 339 339 340 339 336 339 339 340 341 340 340 338 335 332 329 325 323 322 322 323 325 324 321 320 317 315 317 318 319 319 317 318 314 309 309 310
335 338 339 336 336 338 340 340 338 337 331 331 331 331 332 333 337 338 338 335 331 330 323 322 319 320 320 321 324 322 318 317 314 313 313 313 316 319 318 312 311 313 313
333 333 331 331 334 337 337 329 327 327 330 329 329 329 332 334 335 335 336 334 331 326 323 320 318 317 318 319 322 323 320 316 315 313 310 310 309 307 307 307 307 308 308
332 331 331 330 331 332 332 329 325 326 326 327 326 328 331 334 334 336 334 331 329 326 321 320 319 317 317 319 320 321 317 316 313 307 305 306 306 307 306 306 306 306 308
331 331 331 328 326 327 328 327 324 325 324 324 325 325 328 329 332 332 332 331 327 323 320 319 318 315 314 314 314 315 314 310 308 307 306 304 306 307 307 307 306 306 305
330 330 328 327 325 325 324 324 323 323 323 323 322 322 324 326 326 326 325 326 324 323 321 320 319 316 311 310 311 311 311 308 306 306 307 308 308 308 308 307 307 306 305
328 328 327 327 325 324 323 322 321 321 321 320 319 320 321 321 322 323 321 321 320 321 319 318 317 315 312 311 311 311 309 306 307 308 308 309 307 306 306 305 305 306 304

GFSMW_925_thetae_042.txt.gz
Theta_e
355 356 357 354 351 345 337 334 332 346 350 350 350 345 341 339 340 340 341 344 348 348 352 352 350 350 350 349 349 349 348 347 347 347 345 344 346 347 344 343 341 341 342
360 356 353 353 350 343 346 347 348 354 355 353 349 347 340 339 338 341 342 345 346 350 350 349 349 349 349 350 349 349 348 347 348 346 345 349 346 345 346 345 344 345 343
361 357 353 352 347 347 349 350 352 356 354 347 346 344 344 343 341 344 349 350 348 348 348 348 348 349 348 345 348 348 348 346 346 346 345 351 346 347 346 346 345 347 346
358 357 354 348 348 350 348 338 347 354 349 348 347 346 345 346 350 349 349 349 348 347 347 347 347 347 346 347 347 347 348 348 346 345 345 345 347 351 352 345 347 347 346
357 356 351 344 345 347 352 352 353 350 348 349 348 350 349 350 349 349 349 348 346 345 345 346 347 347 348 348 348 348 348 347 347 346 345 345 345 347 348 351 345 344 342
354 353 350 344 345 346 352 353 352 349 349 349 351 351 351 350 348 348 346 343 342 342 344 346 344 345 347 348 348 348 347 346 346 345 343 345 346 345 348 350 347 345 341
354 347 346 344 343 343 348 354 352 348 348 348 350 350 350 350 349 346 343 341 341 341 343 346 344 343 347 347 348 347 347 347 347 346 345 345 347 348 348 348 345 342 341
352 351 348 345 343 342 347 350 353 348 347 349 351 352 350 347 345 343 341 340 339 340 342 344 343 344 346 346 345 344 344 346 346 346 347 347 348 348 348 346 345 346 340
359 351 348 343 349 348 350 353 352 349 347 350 352 350 349 346 344 343 341 340 340 339 341 341 341 342 343 344 344 343 342 343 344 345 345 346 348 348 348 341 340 343 347
347 348 352 353 356 356 354 353 350 348 349 351 349 348 347 345 343 341 341 341 340 339 340 340 340 341 341 342 342 341 341 343 343 343 343 344 345 345 345 347 341 340 342
347 350 352 356 357 354 351 350 349 349 343 346 348 347 345 343 341 340 340 340 339 338 339 339 339 339 339 339 339 339 339 338 339 340 341 341 342 343 344 345 345 344 343
349 350 352 357 354 349 346 348 347 345 341 342 347 346 345 342 341 339 339 339 338 338 337 337 337 337 337 337 337 337 337 336 336 337 338 339 340 341 341 342 342 344 343
351 354 354 356 350 343 347 349 347 343 337 343 346 346 345 343 342 340 339 338 337 336 336 336 335 335 335 334 334 334 335 335 335 335 335 336 337 337 337 338 338 338 338
352 356 354 352 341 337 341 350 347 344 341 341 346 346 346 345 343 341 340 338 337 336 336 335 333 333 332 332 332 331 332 332 333 334 333 333 333 335 336 336 336 337 334
354 355 352 351 340 339 346 350 348 345 343 342 344 347 346 346 344 342 341 339 337 336 335 334 334 332 330 331 331 326 330 330 330 330 329 328 327 327 330 333 334 334 334
346 351 354 352 341 343 346 349 349 345 342 343 344 346 348 346 345 343 341 339 338 336 335 334 333 332 328 325 324 325 325 325 324 325 326 327 327 325 325 326 328 332 334
347 349 351 351 345 345 345 348 347 346 343 344 345 347 348 347 346 344 342 340 339 336 334 334 334 333 328 325 324 325 324 323 324 323 322 323 323 325 326 325 325 325 326
343 345 350 350 347 344 346 344 342 343 345 345 345 349 348 347 345 345 343 341 338 334 332 332 334 332 326 324 323 325 326 325 325 324 324 321 318 319 323 322 318 314 315
349 349 351 349 351 347 345 343 339 339 342 344 345 346 348 347 345 342 343 341 337 335 332 332 333 330 326 323 323 326 325 325 324 324 323 323 319 314 318 320 318 314 310
345 347 349 348 345 345 341 340 340 339 344 342 344 341 343 346 343 343 343 339 337 335 332 329 329 328 326 323 322 325 325 323 323 322 321 320 320 319 319 321 319 318 317
341 345 349 349 346 345 343 343 343 344 344 340 339 338 340 340 341 341 341 337 335 333 329 325 324 325 326 324 322 320 320 321 321 320 319 318 318 313 310 314 317 319 319
339 339 338 336 337 339 344 343 338 332 333 336 338 337 337 337 340 339 338 335 332 331 328 327 325 323 323 323 323 320 320 318 316 315 314 310 308 307 306 308 308 309 312
341 340 340 338 335 334 336 341 333 332 331 332 332 331 331 332 335 337 335 332 329 329 325 325 325 323 322 321 322 320 320 318 313 311 311 307 306 308 307 306 309 310 311
341 341 340 338 337 335 334 333 330 330 331 331 330 328 330 332 332 333 331 330 328 326 323 326 326 324 321 320 320 318 316 313 309 306 307 307 311 311 310 311 310 309 309
340 339 338 337 334 333 330 327 326 327 329 328 328 327 325 325 326 327 326 326 327 328 326 326 323 324 324 320 317 316 315 314 311 308 308 310 314 315 313 311 310 309 309
339 338 337 337 335 333 331 329 327 326 327 328 328 328 327 321 319 320 322 324 324 324 324 323 322 319 318 316 315 314 313 311 308 311 314 316 314 312 310 309 309 309 308

GFSMW_925_thetae_045.txt.gz
Theta_e
355 357 359 356 343 343 343 335 333 336 347 353 353 350 343 341 341 341 341 342 343 350 351 351 351 351 349 351 351 351 350 348 348 350 347 346 346 346 346 345 343 343 346
357 360 360 349 344 347 343 343 336 348 353 355 353 350 344 340 340 340 340 343 345 350 351 351 350 351 351 351 351 350 349 350 350 350 349 351 347 346 345 345 344 343 343
365 363 360 351 349 349 348 356 343 356 357 352 349 347 345 345 338 341 345 346 348 349 349 350 349 350 350 345 349 350 350 349 348 348 347 352 355 346 346 346 345 346 346
363 360 358 351 353 350 355 356 358 358 353 350 347 346 345 347 349 350 349 348 349 348 347 347 347 347 347 348 348 348 349 350 348 348 346 346 347 353 353 346 347 349 349
360 360 358 349 352 353 352 350 358 356 352 352 350 350 350 351 351 350 350 345 348 346 345 347 348 350 350 351 351 350 350 350 348 348 348 346 346 346 351 350 347 345 343
359 359 355 346 351 351 353 355 357 354 352 351 352 352 351 351 349 346 346 344 342 344 346 346 347 347 349 350 351 350 349 349 348 347 346 346 348 347 347 352 346 346 341
358 355 350 347 348 349 353 355 356 353 351 350 351 352 352 352 350 347 344 343 342 343 346 347 347 348 348 349 349 349 349 348 348 349 348 348 348 348 350 349 345 345 343
355 355 351 347 346 347 351 354 354 352 350 350 352 352 350 348 345 345 343 341 341 343 344 346 345 346 347 347 346 345 346 346 348 348 348 349 348 349 351 348 346 346 344
358 355 347 346 346 345 348 354 354 351 350 351 353 350 349 347 346 344 343 341 343 342 343 342 343 343 344 343 345 345 345 346 346 347 347 348 347 346 344 341 345 344 347
358 350 349 353 351 351 354 356 354 351 350 351 351 348 348 346 344 343 343 342 342 342 342 342 342 342 341 342 343 343 341 342 343 344 345 346 347 348 348 344 343 342 345
350 352 354 355 358 357 355 353 352 350 351 350 348 347 346 345 342 342 342 341 341 341 342 341 341 342 341 341 341 341 339 338 339 340 341 342 344 344 346 347 347 346 344
349 350 353 354 356 353 348 351 351 350 346 347 348 347 346 344 342 341 341 341 340 341 340 340 340 339 339 339 338 338 338 337 336 338 339 340 340 340 342 343 344 345 344
350 350 352 356 356 349 349 350 349 345 343 343 347 346 345 345 343 342 341 340 339 339 339 338 338 338 337 337 337 337 337 336 335 336 336 336 337 337 338 339 339 340 339
352 355 355 359 356 345 350 350 348 345 341 342 345 346 346 346 344 343 342 341 340 339 339 338 337 336 336 335 334 335 335 335 334 333 332 331 333 336 337 336 338 336 332
352 356 357 357 354 342 348 350 347 345 340 346 346 347 348 347 344 344 343 341 340 339 338 338 336 335 334 332 331 334 333 333 333 332 329 326 325 327 333 336 337 336 331
349 353 355 356 350 343 348 350 348 346 342 342 345 348 348 348 347 345 344 342 340 339 339 338 336 334 328 327 327 330 329 329 329 329 329 329 328 325 325 330 332 335 336
347 348 352 354 351 345 347 350 350 347 346 344 345 348 348 349 346 346 344 342 340 339 338 337 337 335 327 324 325 327 328 328 328 327 327 326 327 329 327 325 324 326 328
346 346 352 352 351 346 348 350 350 350 347 345 345 348 349 349 347 346 345 343 341 339 337 337 336 334 326 324 325 329 330 329 329 328 326 322 323 323 324 318 314 315 318
352 352 353 351 351 346 349 347 346 348 346 344 346 347 349 349 349 346 345 343 340 339 336 336 335 333 327 323 326 327 330 329 328 328 326 325 319 320 322 321 317 313 310
348 350 353 353 352 350 348 347 344 342 336 338 344 346 347 349 350 346 346 343 341 339 336 335 335 333 330 323 326 327 329 328 327 326 322 321 320 319 322 323 322 321 320
345 350 353 350 351 348 346 345 343 340 341 341 344 345 344 345 346 346 345 345 342 337 335 334 333 331 331 325 323 324 324 323 324 325 323 319 315 312 314 316 320 323 321
344 346 345 346 346 348 347 346 344 341 342 341 341 340 341 342 342 345 344 343 338 334 334 332 331 330 328 329 324 321 323 322 321 319 318 313 308 307 308 309 307 308 312
343 342 342 343 342 343 344 345 338 337 338 337 337 337 336 337 339 342 341 338 334 332 333 333 332 329 328 325 322 322 320 321 318 317 315 307 307 307 308 308 310 311 313
344 343 343 342 340 339 339 338 335 334 335 335 333 331 332 333 333 337 336 333 331 331 333 331 328 329 328 326 323 321 320 317 314 312 308 307 312 312 313 311 312 311 310
343 342 341 340 338 336 335 335 333 333 334 332 332 331 329 328 329 330 329 330 330 330 329 330 329 330 329 327 326 324 321 318 317 312 308 310 313 316 316 313 312 311 312
341 340 339 338 337 336 335 332 332 332 331 331 331 331 330 323 323 323 324 327 329 329 330 330 329 325 324 324 321 319 318 317 314 311 312 316 318 316 313 312 312 311 310

GFSMW_925_thetae_048.txt.gz
Theta_e
359 358 350 348 342 347 351 342 340 336 350 355 355 347 344 341 341 341 341 341 342 343 348 348 349 349 349 349 349 351 349 350 349 349 347 348 348 349 347 347 346 345 344
364 357 348 344 347 349 346 348 342 353 354 355 351 348 341 340 338 339 340 342 342 346 349 349 348 348 349 349 347 348 349 349 349 348 348 351 349 348 347 348 346 346 345
366 361 354 350 349 351 350 348 348 356 357 353 348 346 345 339 338 341 344 345 347 347 347 347 347 347 347 349 348 347 350 350 348 347 348 352 353 347 347 346 341 346 345
366 364 357 355 354 354 351 357 356 354 355 349 347 348 348 348 347 348 347 347 346 347 347 347 345 346 346 347 346 347 349 348 349 348 347 346 346 351 349 346 347 345 346
365 362 361 357 355 351 355 354 356 357 352 353 349 349 350 351 351 350 350 343 342 346 344 344 347 348 348 349 349 350 349 348 348 349 347 346 344 346 348 349 347 342 342
360 363 358 352 354 353 354 352 356 356 354 352 353 352 353 352 351 348 346 343 345 343 344 345 346 347 347 347 348 346 348 348 348 347 346 345 347 347 347 348 345 342 339
361 363 357 351 354 352 354 353 355 355 354 353 353 353 353 353 351 349 341 340 341 343 344 345 345 346 345 346 347 346 346 346 345 345 346 346 346 346 347 346 344 342 340
361 357 353 351 349 351 354 357 355 355 353 351 353 354 351 348 346 346 343 343 343 342 341 343 344 345 344 344 344 345 346 344 345 346 345 345 345 346 346 346 344 343 343
356 356 350 348 348 350 353 357 355 354 353 351 350 351 348 348 345 344 345 343 342 344 342 341 341 341 342 344 345 342 342 344 344 344 344 345 345 344 344 343 344 343 346
357 353 346 348 347 347 349 358 357 354 351 349 348 350 349 346 344 344 342 342 341 341 341 340 341 340 340 343 342 340 339 339 340 341 342 343 343 345 345 344 343 343 343
354 351 350 353 351 353 357 356 355 352 351 347 347 348 347 346 343 343 343 342 341 341 340 341 341 342 341 341 342 339 338 338 338 339 340 340 342 343 343 343 342 342 342
351 352 353 355 355 355 353 355 353 352 350 346 345 346 346 344 343 343 342 341 341 340 340 340 340 340 339 339 339 339 336 336 337 336 337 337 338 339 339 342 342 341 339
351 350 353 357 354 350 349 350 352 352 348 344 345 345 346 344 343 342 342 341 341 340 340 339 339 338 338 338 338 338 336 335 334 334 334 337 339 336 339 338 338 337 334
352 352 359 363 352 351 350 350 349 347 344 344 347 346 347 346 344 343 342 342 341 340 339 338 337 337 337 335 336 336 336 334 331 327 326 329 333 336 338 338 334 332 329
352 358 360 361 351 345 351 350 349 346 342 341 346 347 347 347 345 344 343 342 341 340 339 338 337 334 332 332 334 334 333 333 332 329 327 324 327 331 334 337 334 330 327
351 357 356 357 351 345 349 350 349 346 343 343 345 347 348 348 346 345 344 343 341 340 339 339 337 331 327 328 330 331 330 330 330 330 329 330 328 325 328 332 334 334 329
347 350 355 356 349 346 348 351 349 348 341 342 345 347 348 348 348 346 343 343 342 340 339 337 337 333 325 326 327 330 330 330 329 328 328 329 327 327 324 324 329 328 329
347 348 352 353 350 347 349 350 349 349 349 345 345 347 347 347 346 348 344 343 342 340 339 338 336 334 325 325 329 331 330 330 330 327 323 324 323 323 316 315 319 318 319
354 354 355 353 352 349 352 351 351 350 350 347 345 344 344 345 345 347 345 344 343 340 338 338 335 334 325 324 329 331 331 330 330 328 326 321 321 322 321 318 313 310 308
352 352 355 353 350 352 352 349 347 346 348 342 337 340 342 344 344 346 346 344 342 339 338 337 335 334 329 324 327 328 330 330 328 325 324 322 319 322 324 324 322 317 313
351 354 356 353 352 350 348 348 345 344 342 337 334 333 335 341 341 340 342 344 343 341 338 337 335 333 332 324 325 326 328 327 326 327 323 319 316 318 320 319 323 323 320
348 350 348 348 348 351 348 348 346 345 344 343 335 338 340 340 339 340 339 342 342 340 338 336 334 333 332 331 324 324 325 324 325 322 320 316 309 307 309 308 307 308 312
345 345 344 345 345 345 346 349 346 345 344 341 340 341 340 339 339 341 344 343 341 338 336 334 333 333 330 329 327 323 322 322 322 320 318 312 307 308 308 309 311 312 313
346 346 344 342 341 339 339 339 339 339 338 338 336 335 334 334 334 335 339 340 339 335 335 334 334 332 331 327 323 322 321 321 319 318 315 307 310 312 315 312 312 311 310
343 342 342 340 339 338 336 335 334 334 334 334 333 332 332 332 331 330 333 334 334 334 333 333 333 331 330 329 326 323 322 320 317 314 310 307 311 313 313 314 314 313 312
341 340 340 340 339 338 336 333 333 333 333 333 333 333 331 328 327 327 327 329 330 330 331 331 331 330 329 328 328 326 324 321 317 314 311 309 312 316 318 316 312 311 311